Regional Weather Roundup
Issued by NWS

Home | Current Version | Previous Version | Graphics & Text | Print | Product List | Glossary On
Versions: 1 2 3 4 5 6 7 8 9 10 11 12 13 14 15 16 17 18 19 20 21 22 23 24 25 26 27 28 29 30 31 32 33 34 35 36 37 38 39 40 41 42 43 44 45 46 47 48 49 50
000
ASUS45 KCYS 241310
RWRWY

WYOMING REGIONAL WEATHER ROUNDUP
NATIONAL WEATHER SERVICE CHEYENNE WY
600 AM MST SAT JAN 24 2015

NOTE:  "FAIR" INDICATES FEW OR NO CLOUDS BELOW 12,000 FEET
WITH NO SIGNIFICANT WEATHER AND/OR OBSTRUCTIONS TO VISIBILITY.

WYZ001-241400-
YELLOWSTONE NATIONAL PARK

CITY           SKY/WX    TMP DP  RH WIND       PRES   REMARKS
LK YELLOWSTONE   N/A     13  10  88 CALM      30.34F
W YELLOWSTONE  NOT AVBL

$$
WYZ002>013-054>058-071-098>099-241400-
NORTHERN WYOMING

CITY           SKY/WX    TMP DP  RH WIND       PRES   REMARKS
JACKSON        CLOUDY     9   9 100 CALM      30.41R
CODY           MOCLDY    46  23  39 W20G26    30.10R
GREYBULL       CLOUDY    18  15  88 CALM      30.15R
WORLAND        FAIR      16  12  84 CALM      30.13S
SHERIDAN       MIX PCPN  33  25  72 N5        29.96R WCI  29
BUFFALO        FAIR      43  14  31 N6        29.95F
GILLETTE       CLOUDY    38  22  52 SW17      29.93S WCI  28
HULETT           N/A    N/A N/A N/A MISG        N/A
NEWCASTLE      FAIR      28  23  80 NE3       29.97F

$$
WYZ014>020-022>026-101>103-241400-
CENTRAL WYOMING

CITY           SKY/WX    TMP DP  RH WIND       PRES   REMARKS
BIG PINEY      FAIR       7   3  84 NW9       30.31S WCI  -7
PINEDALE       FAIR      23  18  80 CALM      30.29F
DUBOIS         FAIR      34  23  64 NW15G32   30.21R WCI  24
LANDER         FAIR      22  15  75 SE6       30.12R WCI  14
RIVERTON       FAIR      16  14  92 CALM      30.13R
CASPER         FAIR      33  18  53 SW20G30   30.09R WCI  21
DOUGLAS        MOCLDY    38  21  50 W7        30.01S WCI  33

$$
WYZ021-027>030-104>119-241400-
SOUTHERN WYOMING

CITY           SKY/WX    TMP DP  RH WIND       PRES   REMARKS
EVANSTON       FAIR      17  13  84 SW14      30.36F WCI   3
FORT BRIDGER   FAIR      27  18  71 SW8       30.36F WCI  18
ROCK SPRINGS   FAIR      22  16  78 SW22      30.31F WCI   6
DIXON          FAIR      11   6  80 N3        30.39R
RAWLINS        FAIR      26  16  65 SW9       30.25R WCI  17
SARATOGA       FAIR      21  12  68 S7        30.27R WCI  13
LARAMIE        FAIR      23  14  68 SW12      30.12F WCI  12
CHEYENNE       FAIR      35  12  38 W28G35    30.03F WCI  22
TORRINGTON     FAIR      36  19  50 W9        30.00S WCI  29
PINE BLUFFS    FAIR      23  16  74 S8        30.02F WCI  14

$$


USA.gov is the U.S. government's official web portal to all federal, state and local government web resources and services.